EW2642 Weather Reports


time (UTC)temp
C
wind
direction
speed
KPH
gust
KPH
rain 1hr
cm
rain 24hr
cm
rain mn
cm
humidity
%
barometer
mb
20260506044521 14 277 1.6 9.7 0.00 0.00 0.00 40 1015.6
20260506043009 14 278 1.6 6.4 0.00 0.00 0.00 39 1015.5
20260506041507 15 216 0.0 4.8 0.00 0.00 0.00 37 1015.3
20260506040010 15 315 3.2 8.0 0.00 0.00 0.00 36 1015.1
20260506034515 16 348 3.2 16.1 0.00 0.00 0.00 33 1014.7
20260506033009 17 316 12.9 22.5 0.00 0.00 0.00 31 1014.4
20260506031512 17 303 9.7 19.3 0.00 0.00 0.00 31 1014.2
20260506030008 17 333 9.7 20.9 0.00 0.00 0.00 32 1014.0
20260506024507 18 326 12.9 24.1 0.00 0.00 0.00 31 1013.9
20260506023016 19 315 14.5 25.7 0.00 0.00 0.00 28 1013.7
20260506021516 20 323 12.9 24.1 0.00 0.00 0.00 27 1013.5
20260506020016 20 316 20.9 30.6 0.00 0.00 0.00 25 1013.3
20260506014520 21 309 14.5 29.0 0.00 0.00 0.00 26 1013.2
20260506013017 21 296 19.3 35.4 0.00 0.00 0.00 27 1013.1
20260506011520 21 352 24.1 37.0 0.00 0.00 0.00 25 1012.9
20260506010019 22 330 20.9 38.6 0.00 0.00 0.00 26 1012.8
20260506004532 22 350 17.7 27.4 0.00 0.00 0.00 29 1012.6
20260506003031 22 345 11.3 27.4 0.00 0.00 0.00 31 1012.6
20260506001520 21 351 12.9 30.6 0.00 0.00 0.00 31 1012.7
20260506000025 21 332 16.1 24.1 0.00 0.00 0.00 29 1012.5
20260505234533 22 299 17.7 24.1 0.00 0.00 0.00 27 1012.6
20260505233020 21 317 14.5 29.0 0.00 0.00 0.00 27 1012.6
20260505231524 22 340 16.1 33.8 0.00 0.00 0.00 25 1012.7
20260505230020 22 327 19.3 25.7 0.00 0.00 0.00 25 1012.5
20260505224524 22 347 19.3 30.6 0.00 0.00 0.00 26 1012.7
20260505223023 23 339 16.1 27.4 0.00 0.00 0.00 25 1012.5
20260505221524 23 330 6.4 25.7 0.00 0.00 0.00 26 1012.5
20260505220035 21 352 14.5 29.0 0.00 0.00 0.00 28 1012.8
20260505214531 23 346 12.9 29.0 0.00 0.00 0.00 24 1012.8
20260505213026 22 315 12.9 25.7 0.00 0.00 0.00 25 1012.9
20260505211510 22 336 16.1 27.4 0.00 0.00 0.00 26 1012.8
20260505210008 23 348 16.1 37.0 0.00 0.00 0.00 26 1012.8
20260505204507 21 350 16.1 24.1 0.00 0.00 0.00 26 1013.0
20260505203009 22 30 9.7 20.9 0.00 0.00 0.00 27 1013.0
20260505201511 21 323 12.9 27.4 0.00 0.00 0.00 28 1013.2
20260505200020 21 315 9.7 38.6 0.00 0.00 0.00 27 1013.3
20260505194522 22 32 12.9 27.4 0.00 0.00 0.00 25 1013.2
20260505193026 22 312 12.9 35.4 0.00 0.00 0.00 26 1013.3
20260505191507 20 5 12.9 29.0 0.00 0.00 0.00 28 1013.3
20260505190010 21 350 14.5 29.0 0.00 0.00 0.00 28 1013.2
20260505184525 21 360 14.5 29.0 0.00 0.00 0.00 29 1013.2
20260505183012 21 5 19.3 25.7 0.00 0.00 0.00 27 1013.2
20260505181522 21 316 19.3 25.7 0.00 0.00 0.00 29 1013.2
20260505180007 21 314 11.3 25.7 0.00 0.00 0.00 29 1013.1
20260505174523 20 25 14.5 30.6 0.00 0.00 0.00 30 1013.2
20260505173008 20 5 11.3 25.7 0.00 0.00 0.00 32 1013.1
20260505171513 20 302 11.3 27.4 0.00 0.00 0.00 32 1013.0
20260505170014 19 327 14.5 25.7 0.00 0.00 0.00 32 1013.0
20260505164523 19 11 11.3 29.0 0.00 0.00 0.00 34 1012.9
20260505163026 18 346 9.7 30.6 0.00 0.00 0.00 38 1012.9
20260505161524 18 312 11.3 24.1 0.00 0.00 0.00 39 1012.9
20260505153034 17 330 17.7 27.4 0.00 0.00 0.00 44 1012.7
20260505151508 16 352 16.1 27.4 0.00 0.00 0.00 46 1012.7
20260505124515 11 298 14.5 24.1 0.00 0.00 0.00 54 1011.2
20260505123011 11 321 16.1 27.4 0.00 0.00 0.00 53 1011.1
20260505121514 12 336 17.7 27.4 0.00 0.00 0.00 52 1010.9
20260505120011 11 341 14.5 29.0 0.00 0.00 0.00 51 1010.9
20260505114512 11 327 17.7 30.6 0.00 0.00 0.00 50 1010.8
20260505113012 11 330 17.7 25.7 0.00 0.00 0.00 50 1010.9
20260505111510 12 321 16.1 24.1 0.00 0.00 0.00 48 1010.9
20260505101508 12 318 14.5 20.9 0.00 0.00 0.00 45 1010.7
20260505100012 12 312 8.0 16.1 0.00 0.00 0.00 45 1010.6
20260505094511 12 314 6.4 14.5 0.00 0.00 0.00 44 1010.7
20260505093010 12 315 6.4 16.1 0.00 0.00 0.00 43 1010.6
20260505091510 12 315 8.0 16.1 0.00 0.00 0.00 43 1010.5
20260505090012 12 325 11.3 19.3 0.00 0.00 0.00 43 1010.3
20260505084517 13 333 11.3 24.1 0.00 0.00 0.00 42 1010.2
20260505083014 13 349 16.1 24.1 0.00 0.00 0.00 41 1010.2
20260505081513 13 323 16.1 24.1 0.00 0.00 0.00 40 1010.2
20260505080028 13 347 16.1 27.4 0.00 0.00 0.00 40 1010.2
20260505074527 13 352 16.1 27.4 0.00 0.00 0.00 39 1010.3
20260505073031 13 312 16.1 25.7 0.00 0.00 0.00 39 1010.2
20260505071536 13 342 17.7 25.7 0.00 0.00 0.00 39 1010.3
20260505070038 13 340 17.7 33.8 0.00 0.00 0.00 39 1010.1
20260505064549 14 327 19.3 29.0 0.00 0.00 0.00 38 1009.9
20260505063031 15 343 20.9 32.2 0.00 0.00 0.00 37 1009.7
20260505061518 15 331 17.7 30.6 0.00 0.00 0.00 37 1009.7
20260505060012 15 321 19.3 29.0 0.00 0.00 0.00 36 1009.7
20260505054511 15 322 17.7 30.6 0.00 0.00 0.00 35 1009.7
20260505053011 16 308 17.7 30.6 0.00 0.00 0.00 34 1009.8
20260505051509 16 329 22.5 32.2 0.00 0.00 0.00 33 1009.8